Location: Mascot Post Office (historical)
(40.2645°N, 99.5462°W)
Time: 02:17:15
(UTC+00:00)

Cosmos 1151 Rocket - Pass Details

Date: 14 July 2020
Orbit: 591 x 617 km, 82.5° (Epoch: 14 August)

Event Time Altitude Azimuth Distance (km) Brightness Sun altitude
Rises 04:28:02 0° 4° (N) 2,858 7.3 -20.5°
Reaches altitude 10° 04:30:33 10° 16° (NNE) 1,946 6.1 -20.8°
Maximum altitude 04:34:13 27° 75° (ENE) 1,157 4.3 -21.1°
Enters shadow 04:34:16 27° 76° (ENE) 1,157 4.2 -21.1°
